Flag for Slovakia Weather past 2 weeks in Prešov, Slovakia

34 °F

More clouds than sun.

Feels Like: 22 °F
Forecast: 25 / 37 °F
Wind: 22 mph from Northeast

Location: Kosice - Barca

Current Time: Nov 26, 2015 at 3:38:15 PM

Latest Report: Nov 26, 2015 at 3:00 PM

Visibility: N/A

Pressure: 29.80 "Hg

Humidity: 81%

Dew point: 28 °F

Location of PrešovLocation

Historic Weather in Prešov — Graph


Prešov temperature yesterday

Maximum temperature yesterday: 37 °F (at 1:00 PM)
Minimum temperature yesterday: 19 °F (at 4:30 AM)
Average temperature yesterday: 27 °F

Past Weeks' High & Low Weather Summary

High63 °F (Nov 18, 1:00 PM)100% (Nov 12, 12:00 AM)30.39 "Hg (Nov 12, 12:00 AM)
Low19 °F (Nov 25, 4:30 AM)48% (Nov 24, 12:30 PM)29.27 "Hg (Nov 21, 3:00 AM)
Average42 °F84%29.94 "Hg
* Reported Nov 11 2:00 PM — Nov 26 2:30 PM, Prešov, Weather by CustomWeather, © 2015

Note: Actual official high and low records may vary slightly from our data, if they occured in-between our weather recording intervals... More about our weather records


Prešov weather history for previous 24 hours

Time TempWeatherWind HumidityBarometerVisibility
2:30 PM
Thu, Nov 26
34 °FPartly sunny.23 mph81%29.80 "HgN/A
2:00 PM36 °FPartly sunny.23 mph75%29.80 "HgN/A
1:30 PM36 °FPassing clouds.21 mph75%29.77 "HgN/A
1:00 PM36 °FPassing clouds.22 mph70%29.74 "HgN/A
12:30 PM36 °FSunny.20 mph70%29.74 "Hg10 mi
12:00 PM36 °FSunny.17 mph70%29.74 "Hg10 mi
11:30 AM37 °FSunny.12 mph60%29.74 "Hg10 mi
11:00 AM37 °FSunny.14 mph56%29.74 "Hg10 mi
10:30 AM37 °FSunny.14 mph56%29.71 "Hg10 mi
10:00 AM37 °FSunny.12 mph52%29.71 "Hg10 mi
9:30 AM37 °FSunny.10 mph56%29.71 "Hg10 mi
9:00 AM36 °FSunny.12 mph56%29.71 "Hg10 mi
8:30 AM36 °FSunny.10 mph56%29.71 "Hg10 mi
8:00 AM36 °FSunny.12 mph60%29.71 "Hg10 mi
7:30 AM34 °FSunny.12 mph65%29.68 "Hg10 mi
7:00 AM34 °FSunny.8 mph60%29.68 "Hg10 mi
6:30 AM32 °FClear.6 mph69%29.68 "Hg10 mi
6:00 AM32 °FClear.7 mph69%29.68 "Hg10 mi
5:30 AM30 °FClear.6 mph80%29.68 "Hg10 mi
5:00 AM30 °FClear.6 mph75%29.71 "Hg10 mi
4:00 AM30 °FClear.6 mph75%29.71 "Hg10 mi
3:30 AM30 °FClear.6 mph75%29.71 "Hg10 mi
3:00 AM28 °FClear.3 mph80%29.74 "Hg10 mi
2:30 AM28 °FClear.6 mph80%29.74 "Hg10 mi
2:00 AM27 °FClear.7 mph86%29.74 "Hg10 mi
1:30 AM27 °FClear.7 mph86%29.74 "Hg10 mi
1:00 AM27 °FClear.7 mph86%29.74 "Hg10 mi
12:30 AM25 °FClear.5 mph86%29.77 "Hg10 mi
12:00 AM27 °FClear.7 mph80%29.77 "Hg10 mi
11:30 PM
Wed, Nov 25
27 °FClear.8 mph80%29.77 "Hg10 mi
11:00 PM27 °FClear.5 mph80%29.80 "Hg10 mi
10:30 PM27 °FClear.5 mph80%29.80 "Hg10 mi
10:00 PM27 °FClear.5 mph86%29.80 "Hg10 mi
9:30 PM27 °FClear.8 mph86%29.80 "Hg10 mi
9:00 PM27 °FClear.7 mph86%29.80 "Hg10 mi
8:30 PM27 °FClear.1 mph86%29.83 "Hg10 mi
8:00 PM28 °FClear.2 mph80%29.83 "Hg10 mi
7:30 PM27 °FClear.2 mph86%29.83 "Hg10 mi
7:00 PM28 °FClear.3 mph80%29.83 "Hg10 mi
6:30 PM28 °FClear.5 mph80%29.83 "Hg10 mi
6:00 PM30 °FClear.6 mph80%29.83 "Hg10 mi
5:30 PM30 °FClear.2 mph80%29.86 "Hg10 mi
5:00 PM30 °FClear.2 mph86%29.86 "Hg10 mi
4:30 PM30 °FClear.2 mph80%29.86 "Hg10 mi
4:00 PM32 °FClear.2 mph80%29.89 "Hg10 mi
3:30 PM34 °FSunny.3 mph75%29.89 "Hg10 mi
3:00 PM36 °FSunny.3 mph65%29.89 "Hg10 mi
Weather by CustomWeather, © 2015

See weather overviewHow to use our weather pages